Belden, MS

5:32 AM CDT on September 29, 2016 (GMT -0500)
Tupelo Regional

Weather History for KTUP - July, 2013

Change the Weather History Date:

Thursday, July 11, 2013

  Actual Average Record
Temperature  
Mean Temperature 82 °F 82 °F  
Max Temperature 89 °F 92 °F 103 °F (1936)
Min Temperature 75 °F 71 °F 58 °F (1976)
Degree Days  
Heating Degree Days 0 0  
Month to date heating degree days 0 0  
Since 1 June heating degree days 0 0  
Since 1 July heating degree days 0 0  
Cooling Degree Days 17 16  
Month to date cooling degree days 161 176  
Year to date cooling degree days 823 848  
Since 1 June cooling degree days 577 571  
Growing Degree Days 32 (Base 50)    
Moisture  
Dew Point 73 °F    
Average Humidity 70    
Maximum Humidity 87    
Minimum Humidity 53    
Precipitation  
Precipitation 0.00 in 0.13 in 2.97 in (1964)
Month to date precipitation 0.29 1.49  
Year to date precipitation 30.76 30.61  
Snow  
Snow 0.00 in 0.00 in - ()
Month to date snowfall 0.0 0.0  
Since 1 June snowfall 0.0 0.0  
Since 1 July snowfall 0.0 0.0  
Snow Depth 0.00 in    
Sea Level Pressure  
Sea Level Pressure 29.92 in    
Wind  
Wind Speed 5 mph (SW)    
Max Wind Speed 14 mph    
Max Gust Speed 17 mph    
Visibility 10 miles    
Events Thunderstorm    
T = Trace of Precipitation, MM = Missing Value Source: NWS Daily Summary

Daily Weather History Graph

Daily Weather History Graph

Search for Another Location

Airport or City:

Trip Planner

Search our weather history database for the weather conditions in past years. The results will help you decide how hot, cold, wet, or windy it might be!

Date:

Astronomy

Jul. 11, 2013 Rise Set
Actual Time 5:52 AM CDT 8:09 PM CDT
Civil Twilight 5:23 AM CDT 8:37 PM CDT
Nautical Twilight 4:47 AM CDT 9:13 PM CDT
Astronomical Twilight 4:09 AM CDT 9:51 PM CDT
Moon 8:59 AM CDT (7/11) 10:01 PM CDT (7/11)
Length of Visible Light 15h 14m
Length of Day
14h 16m
Waxing Crescent, 11% of the Moon is Illuminated
Jul 11
Waxing Crescent
Jul 15
First Quarter
Jul 22
Full
Jul 29
Last Quarter
Aug 6
New

Hourly Weather History & Observations

Time (CDT) Temp. Heat Index Dew Point Humidity Pressure Visibility Wind Dir Wind Speed Gust Speed Precip Events Conditions
12:53 AM 79.0 °F - 73.9 °F 84% 29.93 in 10.0 mi SSW 5.8 mph - N/A   Scattered Clouds
1:53 AM 79.0 °F - 73.0 °F 82% 29.92 in 10.0 mi WSW 3.5 mph - N/A   Clear
2:04 AM 78.8 °F - 73.4 °F 83% 29.94 in 10.0 mi Calm Calm - N/A Thunderstorm Thunderstorm
2:35 AM 78.8 °F - 73.4 °F 83% 29.95 in 10.0 mi NNE 6.9 mph - N/A   Scattered Clouds
2:43 AM 78.8 °F - 73.4 °F 83% 29.95 in 10.0 mi NE 6.9 mph - N/A Thunderstorm Thunderstorm
2:53 AM 79.0 °F - 73.0 °F 82% 29.94 in 10.0 mi East 4.6 mph - N/A Thunderstorm Thunderstorm
3:13 AM 78.8 °F - 73.4 °F 83% 29.93 in 10.0 mi SSW 6.9 mph - N/A   Scattered Clouds
3:53 AM 77.0 °F - 73.0 °F 88% 29.92 in 10.0 mi SSW 3.5 mph - N/A   Clear
4:53 AM 75.9 °F - 72.0 °F 87% 29.91 in 10.0 mi SSW 6.9 mph - N/A   Clear
5:53 AM 75.0 °F - 71.1 °F 87% 29.92 in 10.0 mi South 4.6 mph - N/A   Clear
6:53 AM 75.0 °F - 71.1 °F 87% 29.94 in 10.0 mi SW 4.6 mph - N/A   Clear
7:53 AM 78.1 °F - 72.0 °F 81% 29.95 in 10.0 mi SW 4.6 mph - N/A   Clear
8:53 AM 82.0 °F 87.9 °F 73.9 °F 76% 29.94 in 10.0 mi SW 5.8 mph - N/A   Mostly Cloudy
9:53 AM 82.9 °F 89.4 °F 73.9 °F 74% 29.94 in 10.0 mi Calm Calm - N/A   Mostly Cloudy
10:53 AM 88.0 °F 95.6 °F 73.0 °F 61% 29.94 in 10.0 mi West 3.5 mph - N/A   Partly Cloudy
11:16 AM 87.8 °F 95.6 °F 73.4 °F 62% 29.96 in 10.0 mi WSW 5.8 mph - N/A   Mostly Cloudy
11:53 AM 89.1 °F 98.0 °F 73.9 °F 61% 29.94 in 10.0 mi South 8.1 mph - N/A   Overcast
12:53 PM 88.0 °F 97.5 °F 75.0 °F 65% 29.93 in 10.0 mi SSE 6.9 mph - N/A   Mostly Cloudy
1:08 PM 87.8 °F 95.6 °F 73.4 °F 62% 29.94 in 10.0 mi SSW 4.6 mph - N/A Thunderstorm Thunderstorm
1:23 PM 87.8 °F 97.6 °F 75.2 °F 66% 29.93 in 10.0 mi South 8.1 mph - N/A Thunderstorm Scattered Clouds
1:51 PM 84.2 °F 92.3 °F 75.2 °F 74% 29.94 in 10.0 mi SW 11.5 mph - N/A Thunderstorm Thunderstorm
1:53 PM 84.0 °F 91.9 °F 75.0 °F 74% 29.94 in 10.0 mi SW 9.2 mph - N/A Thunderstorm Thunderstorm
2:12 PM 86.0 °F 95.1 °F 75.2 °F 70% 29.93 in 10.0 mi West 9.2 mph - N/A Thunderstorm Thunderstorm
2:20 PM 86.0 °F 95.1 °F 75.2 °F 70% 29.94 in 10.0 mi SW 8.1 mph - N/A Thunderstorm Thunderstorm
2:53 PM 82.0 °F 88.6 °F 75.0 °F 79% 29.93 in 10.0 mi WSW 4.6 mph - N/A Thunderstorm Thunderstorm
3:39 PM 84.2 °F 92.3 °F 75.2 °F 74% 29.92 in 10.0 mi WSW 6.9 mph - N/A   Clear
3:53 PM 86.0 °F 93.8 °F 73.9 °F 67% 29.91 in 10.0 mi WSW 9.2 mph - N/A   Clear
4:53 PM 84.0 °F 87.8 °F 69.1 °F 61% 29.90 in 10.0 mi NW 4.6 mph - N/A   Clear
5:34 PM 86.0 °F 89.4 °F 68.0 °F 55% 29.90 in 10.0 mi Calm Calm - N/A Thunderstorm Thunderstorm
5:49 PM 87.8 °F 91.4 °F 68.0 °F 52% 29.89 in 10.0 mi WSW 3.5 mph - N/A   Clear
5:53 PM 87.1 °F 90.6 °F 68.0 °F 53% 29.88 in 10.0 mi West 4.6 mph - N/A   Clear
6:53 PM 82.9 °F 87.0 °F 70.0 °F 65% 29.88 in 10.0 mi NE 3.5 mph - N/A   Mostly Cloudy
7:34 PM 82.4 °F 87.2 °F 71.6 °F 70% 29.91 in 10.0 mi Calm Calm - N/A Thunderstorm Thunderstorm
7:48 PM 82.4 °F 87.2 °F 71.6 °F 70% 29.91 in 10.0 mi Calm Calm - N/A   Clear
7:53 PM 82.0 °F 86.7 °F 72.0 °F 71% 29.89 in 10.0 mi Calm Calm - N/A   Clear
8:53 PM 80.1 °F 83.8 °F 72.0 °F 76% 29.89 in 10.0 mi NW 4.6 mph - N/A   Scattered Clouds
9:53 PM 78.1 °F - 72.0 °F 81% 29.91 in 10.0 mi Calm Calm - N/A   Clear
10:53 PM 77.0 °F - 72.0 °F 84% 29.92 in 10.0 mi Calm Calm - N/A   Clear
11:53 PM 75.0 °F - 72.0 °F 90% 29.93 in 10.0 mi NNE 9.2 mph - N/A   Clear